owner,sensor,date,latitude,longitude,vertical_datum,mass_concentration_of_oxygen_in_sea_water,qcFlag 
SCCF RECON,ioos:station:SCCF:53:1,2010-01-01T00:00:00Z,26.6493,-81.8810,2.24,8.87,1111122 
SCCF RECON,ioos:station:SCCF:53:1,2010-01-01T01:00:00Z,26.6493,-81.8810,2.22,9.04,1111122 
SCCF RECON,ioos:station:SCCF:53:1,2010-01-01T02:00:00Z,26.6493,-81.8810,2.23,8.82,1111122 
SCCF RECON,ioos:station:SCCF:53:1,2010-01-01T03:00:00Z,26.6493,-81.8810,2.29,8.71,1111122 
SCCF RECON,ioos:station:SCCF:53:1,2010-01-01T04:00:00Z,26.6493,-81.8810,2.35,8.68,1111122 
SCCF RECON,ioos:station:SCCF:53:1,2010-01-01T05:00:00Z,26.6493,-81.8810,2.41,8.81,1111122 
SCCF RECON,ioos:station:SCCF:53:1,2010-01-01T06:00:00Z,26.6493,-81.8810,2.48,8.73,1111122 
SCCF RECON,ioos:station:SCCF:53:1,2010-01-01T07:00:00Z,26.6493,-81.8810,2.521,8.55,1111122 
SCCF RECON,ioos:station:SCCF:53:1,2010-01-01T08:00:00Z,26.6493,-81.8810,2.54,8.28,1111122 
SCCF RECON,ioos:station:SCCF:53:1,2010-01-01T09:00:00Z,26.6493,-81.8810,2.49,8.59,1111122 
SCCF RECON,ioos:station:SCCF:53:1,2010-01-01T10:00:00Z,26.6493,-81.8810,2.42,8.59,1111122 
SCCF RECON,ioos:station:SCCF:53:1,2010-01-01T11:00:00Z,26.6493,-81.8810,2.356,8.28,1111122 
SCCF RECON,ioos:station:SCCF:53:1,2010-01-01T12:00:00Z,26.6493,-81.8810,2.29,8.14,1111122 
SCCF RECON,ioos:station:SCCF:53:1,2010-01-01T13:00:00Z,26.6493,-81.8810,2.23,8.25,1111122 
SCCF RECON,ioos:station:SCCF:53:1,2010-01-01T14:00:00Z,26.6493,-81.8810,2.17,8.12,1111122 
SCCF RECON,ioos:station:SCCF:53:1,2010-01-01T15:00:00Z,26.6493,-81.8810,2.1,8.21,1111122 
SCCF RECON,ioos:station:SCCF:53:1,2010-01-01T16:00:00Z,26.6493,-81.8810,2.06,8.07,1111122 
SCCF RECON,ioos:station:SCCF:53:1,2010-01-01T17:00:00Z,26.6493,-81.8810,2.054,7.94,1111122 
SCCF RECON,ioos:station:SCCF:53:1,2010-01-01T18:00:00Z,26.6493,-81.8810,2.1,7.8,1111122 
SCCF RECON,ioos:station:SCCF:53:1,2010-01-01T19:00:00Z,26.6493,-81.8810,2.151,7.82,1111122 
SCCF RECON,ioos:station:SCCF:53:1,2010-01-01T20:00:00Z,26.6493,-81.8810,2.221,7.71,1111122 
SCCF RECON,ioos:station:SCCF:53:1,2010-01-01T21:00:00Z,26.6493,-81.8810,2.28,8.19,1111122 
SCCF RECON,ioos:station:SCCF:53:1,2010-01-01T22:00:00Z,26.6493,-81.8810,2.299,8.52,1111122 
SCCF RECON,ioos:station:SCCF:53:1,2010-01-01T23:00:00Z,26.6493,-81.8810,2.26,8.65,1111122 
SCCF RECON,ioos:station:SCCF:53:1,2010-01-02T00:00:00Z,26.6493,-81.8810,2.22,8.54,1111122 
SCCF RECON,ioos:station:SCCF:53:1,2010-01-02T01:00:00Z,26.6493,-81.8810,2.187,8.47,1111122 
SCCF RECON,ioos:station:SCCF:53:1,2010-01-02T02:00:00Z,26.6493,-81.8810,2.137,8.27,1111122 
SCCF RECON,ioos:station:SCCF:53:1,2010-01-02T03:00:00Z,26.6493,-81.8810,2.11,8.24,1111122 
SCCF RECON,ioos:station:SCCF:53:1,2010-01-02T04:00:00Z,26.6493,-81.8810,2.12,8.04,1111122 
SCCF RECON,ioos:station:SCCF:53:1,2010-01-02T05:00:00Z,26.6493,-81.8810,2.15,7.56,1111122 
SCCF RECON,ioos:station:SCCF:53:1,2010-01-02T06:00:00Z,26.6493,-81.8810,2.2,7.6,1111122 
SCCF RECON,ioos:station:SCCF:53:1,2010-01-02T07:00:00Z,26.6493,-81.8810,2.249,7.44,1111122 
SCCF RECON,ioos:station:SCCF:53:1,2010-01-02T08:00:00Z,26.6493,-81.8810,2.267,7.81,1111122 
SCCF RECON,ioos:station:SCCF:53:1,2010-01-02T09:00:00Z,26.6493,-81.8810,2.27,7.96,1111122 
SCCF RECON,ioos:station:SCCF:53:1,2010-01-02T10:00:00Z,26.6493,-81.8810,2.22,7.72,1111122 
SCCF RECON,ioos:station:SCCF:53:1,2010-01-02T11:00:00Z,26.6493,-81.8810,2.172,7.77,1111122 
SCCF RECON,ioos:station:SCCF:53:1,2010-01-02T12:00:00Z,26.6493,-81.8810,2.13,7.67,1111122 
SCCF RECON,ioos:station:SCCF:53:1,2010-01-02T13:00:00Z,26.6493,-81.8810,2.08,7.51,1111122 
SCCF RECON,ioos:station:SCCF:53:1,2010-01-02T14:00:00Z,26.6493,-81.8810,2.03,7.69,1111122 
SCCF RECON,ioos:station:SCCF:53:1,2010-01-02T15:00:00Z,26.6493,-81.8810,1.98,7.8,1111122 
SCCF RECON,ioos:station:SCCF:53:1,2010-01-02T16:00:00Z,26.6493,-81.8810,1.921,8.02,1111122 
SCCF RECON,ioos:station:SCCF:53:1,2010-01-02T17:00:00Z,26.6493,-81.8810,1.867,8.2,1111122 
SCCF RECON,ioos:station:SCCF:53:1,2010-01-02T18:00:00Z,26.6493,-81.8810,1.819,8.45,1111122 
SCCF RECON,ioos:station:SCCF:53:1,2010-01-02T19:00:00Z,26.6493,-81.8810,1.81,8.59,1111122 
SCCF RECON,ioos:station:SCCF:53:1,2010-01-02T20:00:00Z,26.6493,-81.8810,1.85,8.61,1111122 
SCCF RECON,ioos:station:SCCF:53:1,2010-01-02T21:00:00Z,26.6493,-81.8810,1.88,8.47,1111122 
SCCF RECON,ioos:station:SCCF:53:1,2010-01-02T22:00:00Z,26.6493,-81.8810,1.926,8.45,1111122 
SCCF RECON,ioos:station:SCCF:53:1,2010-01-02T23:00:00Z,26.6493,-81.8810,1.97,8.44,1111122 
SCCF RECON,ioos:station:SCCF:53:1,2010-01-03T00:00:00Z,26.6493,-81.8810,1.99,8.43,1111122 
SCCF RECON,ioos:station:SCCF:53:1,2010-01-03T01:00:00Z,26.6493,-81.8810,1.99,8.16,1111122 
SCCF RECON,ioos:station:SCCF:53:1,2010-01-03T02:00:00Z,26.6493,-81.8810,1.98,8.48,1111122 
SCCF RECON,ioos:station:SCCF:53:1,2010-01-03T03:00:00Z,26.6493,-81.8810,1.968,8.53,1111122 
SCCF RECON,ioos:station:SCCF:53:1,2010-01-03T04:00:00Z,26.6493,-81.8810,1.99,8.44,1111122 
SCCF RECON,ioos:station:SCCF:53:1,2010-01-03T05:00:00Z,26.6493,-81.8810,2.04,8.45,1111122 
SCCF RECON,ioos:station:SCCF:53:1,2010-01-03T06:00:00Z,26.6493,-81.8810,2.08,8.41,1111122 
SCCF RECON,ioos:station:SCCF:53:1,2010-01-03T07:00:00Z,26.6493,-81.8810,2.14,8.45,1111122 
SCCF RECON,ioos:station:SCCF:53:1,2010-01-03T08:00:00Z,26.6493,-81.8810,2.199,8.45,1111122 
SCCF RECON,ioos:station:SCCF:53:1,2010-01-03T09:00:00Z,26.6493,-81.8810,2.24,8.44,1111122 
SCCF RECON,ioos:station:SCCF:53:1,2010-01-03T10:00:00Z,26.6493,-81.8810,2.26,8.42,1111122 
SCCF RECON,ioos:station:SCCF:53:1,2010-01-03T11:00:00Z,26.6493,-81.8810,2.22,8.36,1111122 
SCCF RECON,ioos:station:SCCF:53:1,2010-01-03T12:00:00Z,26.6493,-81.8810,2.18,8.34,1111122 
SCCF RECON,ioos:station:SCCF:53:1,2010-01-03T13:00:00Z,26.6493,-81.8810,2.14,8.22,1111122 
SCCF RECON,ioos:station:SCCF:53:1,2010-01-03T14:00:00Z,26.6493,-81.8810,2.09,8.2,1111122 
SCCF RECON,ioos:station:SCCF:53:1,2010-01-03T15:00:00Z,26.6493,-81.8810,2.042,8.19,1111122 
SCCF RECON,ioos:station:SCCF:53:1,2010-01-03T16:00:00Z,26.6493,-81.8810,1.982,8.3,1111122 
SCCF RECON,ioos:station:SCCF:53:1,2010-01-03T17:00:00Z,26.6493,-81.8810,1.93,8.24,1111122 
SCCF RECON,ioos:station:SCCF:53:1,2010-01-03T18:00:00Z,26.6493,-81.8810,1.89,8.23,1111122 
SCCF RECON,ioos:station:SCCF:53:1,2010-01-03T19:00:00Z,26.6493,-81.8810,1.889,8.33,1111122 
SCCF RECON,ioos:station:SCCF:53:1,2010-01-03T20:00:00Z,26.6493,-81.8810,1.921,8.33,1111122 
SCCF RECON,ioos:station:SCCF:53:1,2010-01-03T21:00:00Z,26.6493,-81.8810,1.97,8.46,1111122 
SCCF RECON,ioos:station:SCCF:53:1,2010-01-03T22:00:00Z,26.6493,-81.8810,2.02,8.5,1111122 
SCCF RECON,ioos:station:SCCF:53:1,2010-01-03T23:00:00Z,26.6493,-81.8810,2.05,8.43,1111122 
SCCF RECON,ioos:station:SCCF:53:1,2010-01-04T00:00:00Z,26.6493,-81.8810,2.05,8.44,1111122 
SCCF RECON,ioos:station:SCCF:53:1,2010-01-04T01:00:00Z,26.6493,-81.8810,2.02,8.51,1111122 
SCCF RECON,ioos:station:SCCF:53:1,2010-01-04T02:00:00Z,26.6493,-81.8810,1.98,8.52,1111122 
SCCF RECON,ioos:station:SCCF:53:1,2010-01-04T03:00:00Z,26.6493,-81.8810,1.95,8.4,1111122 
SCCF RECON,ioos:station:SCCF:53:1,2010-01-04T04:00:00Z,26.6493,-81.8810,1.93,8.39,1111122 
SCCF RECON,ioos:station:SCCF:53:1,2010-01-04T05:00:00Z,26.6493,-81.8810,1.95,8.35,1111122 
SCCF RECON,ioos:station:SCCF:53:1,2010-01-04T06:00:00Z,26.6493,-81.8810,2.0,8.42,1111122 
SCCF RECON,ioos:station:SCCF:53:1,2010-01-04T07:00:00Z,26.6493,-81.8810,2.05,8.38,1111122 
SCCF RECON,ioos:station:SCCF:53:1,2010-01-04T08:00:00Z,26.6493,-81.8810,2.102,8.29,1111122 
SCCF RECON,ioos:station:SCCF:53:1,2010-01-04T09:00:00Z,26.6493,-81.8810,2.16,8.24,1111122 
SCCF RECON,ioos:station:SCCF:53:1,2010-01-04T10:00:00Z,26.6493,-81.8810,2.2,8.24,1111122 
SCCF RECON,ioos:station:SCCF:53:1,2010-01-04T11:00:00Z,26.6493,-81.8810,2.24,8.25,1111122 
SCCF RECON,ioos:station:SCCF:53:1,2010-01-04T12:00:00Z,26.6493,-81.8810,2.219,8.2,1111122 
SCCF RECON,ioos:station:SCCF:53:1,2010-01-04T13:00:00Z,26.6493,-81.8810,2.16,8.34,1111122 
SCCF RECON,ioos:station:SCCF:53:1,2010-01-04T14:00:00Z,26.6493,-81.8810,2.12,8.28,1111122 
SCCF RECON,ioos:station:SCCF:53:1,2010-01-04T15:00:00Z,26.6493,-81.8810,2.078,8.35,1111122 
SCCF RECON,ioos:station:SCCF:53:1,2010-01-04T16:00:00Z,26.6493,-81.8810,2.02,8.4,1111122 
SCCF RECON,ioos:station:SCCF:53:1,2010-01-04T17:00:00Z,26.6493,-81.8810,1.97,8.46,1111122 
SCCF RECON,ioos:station:SCCF:53:1,2010-01-04T18:00:00Z,26.6493,-81.8810,1.92,8.48,1111122 
SCCF RECON,ioos:station:SCCF:53:1,2010-01-04T19:00:00Z,26.6493,-81.8810,1.92,8.48,1111122 
SCCF RECON,ioos:station:SCCF:53:1,2010-01-04T20:00:00Z,26.6493,-81.8810,1.972,8.52,1111122 
SCCF RECON,ioos:station:SCCF:53:1,2010-01-04T21:00:00Z,26.6493,-81.8810,2.03,8.82,1111122 
SCCF RECON,ioos:station:SCCF:53:1,2010-01-04T22:00:00Z,26.6493,-81.8810,2.08,8.87,1111122 
SCCF RECON,ioos:station:SCCF:53:1,2010-01-04T23:00:00Z,26.6493,-81.8810,2.15,8.74,1111122 
SCCF RECON,ioos:station:SCCF:53:1,2010-01-05T00:00:00Z,26.6493,-81.8810,2.19,8.72,1111122 
SCCF RECON,ioos:station:SCCF:53:1,2010-01-05T01:00:00Z,26.6493,-81.8810,2.182,8.55,1111122 
SCCF RECON,ioos:station:SCCF:53:1,2010-01-05T02:00:00Z,26.6493,-81.8810,2.14,8.73,1111122 
SCCF RECON,ioos:station:SCCF:53:1,2010-01-05T03:00:00Z,26.6493,-81.8810,2.11,8.67,1111122 
SCCF RECON,ioos:station:SCCF:53:1,2010-01-05T04:00:00Z,26.6493,-81.8810,2.062,8.52,1111122 
SCCF RECON,ioos:station:SCCF:53:1,2010-01-05T05:00:00Z,26.6493,-81.8810,2.025,8.5,1111122 
SCCF RECON,ioos:station:SCCF:53:1,2010-01-05T06:00:00Z,26.6493,-81.8810,2.0,8.52,1111122 
SCCF RECON,ioos:station:SCCF:53:1,2010-01-05T07:00:00Z,26.6493,-81.8810,2.04,8.48,1111122 
SCCF RECON,ioos:station:SCCF:53:1,2010-01-05T08:00:00Z,26.6493,-81.8810,2.1,8.37,1111122 
SCCF RECON,ioos:station:SCCF:53:1,2010-01-05T09:00:00Z,26.6493,-81.8810,2.14,8.38,1111122 
SCCF RECON,ioos:station:SCCF:53:1,2010-01-05T10:00:00Z,26.6493,-81.8810,2.2,8.41,1111122 
SCCF RECON,ioos:station:SCCF:53:1,2010-01-05T11:00:00Z,26.6493,-81.8810,2.25,8.5,1111122 
SCCF RECON,ioos:station:SCCF:53:1,2010-01-05T12:00:00Z,26.6493,-81.8810,2.277,8.51,1111122 
SCCF RECON,ioos:station:SCCF:53:1,2010-01-05T13:00:00Z,26.6493,-81.8810,2.24,8.6,1111122 
SCCF RECON,ioos:station:SCCF:53:1,2010-01-05T14:00:00Z,26.6493,-81.8810,2.19,8.51,1111122 
SCCF RECON,ioos:station:SCCF:53:1,2010-01-05T15:00:00Z,26.6493,-81.8810,2.149,8.39,1111122 
SCCF RECON,ioos:station:SCCF:53:1,2010-01-05T16:00:00Z,26.6493,-81.8810,2.09,8.41,1111122 
SCCF RECON,ioos:station:SCCF:53:1,2010-01-05T17:00:00Z,26.6493,-81.8810,2.03,8.52,1111122 
SCCF RECON,ioos:station:SCCF:53:1,2010-01-05T18:00:00Z,26.6493,-81.8810,1.986,8.59,1111122 
SCCF RECON,ioos:station:SCCF:53:1,2010-01-05T19:00:00Z,26.6493,-81.8810,1.941,8.66,1111122 
SCCF RECON,ioos:station:SCCF:53:1,2010-01-05T20:00:00Z,26.6493,-81.8810,1.94,8.7,1111122 
SCCF RECON,ioos:station:SCCF:53:1,2010-01-05T21:00:00Z,26.6493,-81.8810,1.977,8.71,1111122 
SCCF RECON,ioos:station:SCCF:53:1,2010-01-05T22:00:00Z,26.6493,-81.8810,2.02,8.74,1111122 
SCCF RECON,ioos:station:SCCF:53:1,2010-01-05T23:00:00Z,26.6493,-81.8810,2.06,8.72,1111122 
SCCF RECON,ioos:station:SCCF:53:1,2010-01-06T00:00:00Z,26.6493,-81.8810,2.099,8.7,1111122 
SCCF RECON,ioos:station:SCCF:53:1,2010-01-06T01:00:00Z,26.6493,-81.8810,2.1,8.48,1111122 
SCCF RECON,ioos:station:SCCF:53:1,2010-01-06T02:00:00Z,26.6493,-81.8810,2.06,8.73,1111122 
SCCF RECON,ioos:station:SCCF:53:1,2010-01-06T03:00:00Z,26.6493,-81.8810,2.03,8.68,1111122 
SCCF RECON,ioos:station:SCCF:53:1,2010-01-06T04:00:00Z,26.6493,-81.8810,1.99,8.65,1111122 
SCCF RECON,ioos:station:SCCF:53:1,2010-01-06T05:00:00Z,26.6493,-81.8810,1.95,8.65,1111122 
SCCF RECON,ioos:station:SCCF:53:1,2010-01-06T06:00:00Z,26.6493,-81.8810,1.91,8.64,1111122 
SCCF RECON,ioos:station:SCCF:53:1,2010-01-06T07:00:00Z,26.6493,-81.8810,1.873,8.61,1111122 
SCCF RECON,ioos:station:SCCF:53:1,2010-01-06T08:00:00Z,26.6493,-81.8810,1.87,8.64,1111122 
SCCF RECON,ioos:station:SCCF:53:1,2010-01-06T09:00:00Z,26.6493,-81.8810,1.91,8.45,1111122 
SCCF RECON,ioos:station:SCCF:53:1,2010-01-06T10:00:00Z,26.6493,-81.8810,1.94,8.43,1111122 
SCCF RECON,ioos:station:SCCF:53:1,2010-01-06T11:00:00Z,26.6493,-81.8810,1.98,8.31,1111122 
SCCF RECON,ioos:station:SCCF:53:1,2010-01-06T12:00:00Z,26.6493,-81.8810,2.02,8.37,1111122 
SCCF RECON,ioos:station:SCCF:53:1,2010-01-06T13:00:00Z,26.6493,-81.8810,2.04,8.26,1111122 
SCCF RECON,ioos:station:SCCF:53:1,2010-01-06T14:00:00Z,26.6493,-81.8810,2.026,8.29,1111122 
SCCF RECON,ioos:station:SCCF:53:1,2010-01-06T15:00:00Z,26.6493,-81.8810,2.0,8.71,1111122 
SCCF RECON,ioos:station:SCCF:53:1,2010-01-06T16:00:00Z,26.6493,-81.8810,1.965,8.48,1111122 
SCCF RECON,ioos:station:SCCF:53:1,2010-01-06T17:00:00Z,26.6493,-81.8810,1.918,8.66,1111122 
SCCF RECON,ioos:station:SCCF:53:1,2010-01-06T18:00:00Z,26.6493,-81.8810,1.871,8.86,1111122 
SCCF RECON,ioos:station:SCCF:53:1,2010-01-06T19:00:00Z,26.6493,-81.8810,1.846,8.95,1111122 
SCCF RECON,ioos:station:SCCF:53:1,2010-01-06T20:00:00Z,26.6493,-81.8810,1.858,8.95,1111122 
SCCF RECON,ioos:station:SCCF:53:1,2010-01-06T21:00:00Z,26.6493,-81.8810,1.91,8.96,1111122 
SCCF RECON,ioos:station:SCCF:53:1,2010-01-06T22:00:00Z,26.6493,-81.8810,1.96,9.07,1111122 
SCCF RECON,ioos:station:SCCF:53:1,2010-01-06T23:00:00Z,26.6493,-81.8810,2.01,9.0,1111122 
SCCF RECON,ioos:station:SCCF:53:1,2010-01-07T00:00:00Z,26.6493,-81.8810,2.07,8.95,1111122 
SCCF RECON,ioos:station:SCCF:53:1,2010-01-07T01:00:00Z,26.6493,-81.8810,2.11,8.94,1111122 
SCCF RECON,ioos:station:SCCF:53:1,2010-01-07T02:00:00Z,26.6493,-81.8810,2.13,8.85,1111122 
SCCF RECON,ioos:station:SCCF:53:1,2010-01-07T03:00:00Z,26.6493,-81.8810,2.1,8.94,1111122 
SCCF RECON,ioos:station:SCCF:53:1,2010-01-07T04:00:00Z,26.6493,-81.8810,2.06,8.96,1111122 
SCCF RECON,ioos:station:SCCF:53:1,2010-01-07T05:00:00Z,26.6493,-81.8810,2.02,8.9,1111122 
SCCF RECON,ioos:station:SCCF:53:1,2010-01-07T06:00:00Z,26.6493,-81.8810,1.97,8.85,1111122 
SCCF RECON,ioos:station:SCCF:53:1,2010-01-07T07:00:00Z,26.6493,-81.8810,1.93,8.75,1111122 
SCCF RECON,ioos:station:SCCF:53:1,2010-01-07T08:00:00Z,26.6493,-81.8810,1.9,8.69,1111122 
SCCF RECON,ioos:station:SCCF:53:1,2010-01-07T09:00:00Z,26.6493,-81.8810,1.88,8.78,1111122 
SCCF RECON,ioos:station:SCCF:53:1,2010-01-07T10:00:00Z,26.6493,-81.8810,1.89,8.52,1111122 
SCCF RECON,ioos:station:SCCF:53:1,2010-01-07T11:00:00Z,26.6493,-81.8810,1.932,8.62,1111122 
SCCF RECON,ioos:station:SCCF:53:1,2010-01-07T12:00:00Z,26.6493,-81.8810,1.98,8.66,1111122 
SCCF RECON,ioos:station:SCCF:53:1,2010-01-07T13:00:00Z,26.6493,-81.8810,2.01,8.53,1111122 
SCCF RECON,ioos:station:SCCF:53:1,2010-01-07T14:00:00Z,26.6493,-81.8810,2.031,8.64,1111122 
SCCF RECON,ioos:station:SCCF:53:1,2010-01-07T15:00:00Z,26.6493,-81.8810,2.04,8.6,1111122 
SCCF RECON,ioos:station:SCCF:53:1,2010-01-07T16:00:00Z,26.6493,-81.8810,2.02,8.57,1111122 
SCCF RECON,ioos:station:SCCF:53:1,2010-01-07T17:00:00Z,26.6493,-81.8810,1.98,8.54,1111122 
SCCF RECON,ioos:station:SCCF:53:1,2010-01-07T18:00:00Z,26.6493,-81.8810,1.95,8.56,1111122 
SCCF RECON,ioos:station:SCCF:53:1,2010-01-07T19:00:00Z,26.6493,-81.8810,1.94,8.57,1111122 
SCCF RECON,ioos:station:SCCF:53:1,2010-01-07T20:00:00Z,26.6493,-81.8810,1.96,8.79,1111122 
SCCF RECON,ioos:station:SCCF:53:1,2010-01-07T21:00:00Z,26.6493,-81.8810,2.01,8.94,1111122 
SCCF RECON,ioos:station:SCCF:53:1,2010-01-07T22:00:00Z,26.6493,-81.8810,2.072,8.97,1111122 
SCCF RECON,ioos:station:SCCF:53:1,2010-01-07T23:00:00Z,26.6493,-81.8810,2.13,9.02,1111122 
SCCF RECON,ioos:station:SCCF:53:1,2010-01-08T00:00:00Z,26.6493,-81.8810,2.19,8.99,1111122 
SCCF RECON,ioos:station:SCCF:53:1,2010-01-08T01:00:00Z,26.6493,-81.8810,2.232,8.98,1111122 
SCCF RECON,ioos:station:SCCF:53:1,2010-01-08T02:00:00Z,26.6493,-81.8810,2.27,8.99,1111122 
SCCF RECON,ioos:station:SCCF:53:1,2010-01-08T03:00:00Z,26.6493,-81.8810,2.28,8.98,1111122 
SCCF RECON,ioos:station:SCCF:53:1,2010-01-08T04:00:00Z,26.6493,-81.8810,2.23,8.96,1111122 
SCCF RECON,ioos:station:SCCF:53:1,2010-01-08T05:00:00Z,26.6493,-81.8810,2.18,8.94,1111122 
SCCF RECON,ioos:station:SCCF:53:1,2010-01-08T06:00:00Z,26.6493,-81.8810,2.13,8.88,1111122 
SCCF RECON,ioos:station:SCCF:53:1,2010-01-08T07:00:00Z,26.6493,-81.8810,2.07,8.81,1111122 
SCCF RECON,ioos:station:SCCF:53:1,2010-01-08T08:00:00Z,26.6493,-81.8810,2.03,8.75,1111122 
SCCF RECON,ioos:station:SCCF:53:1,2010-01-08T09:00:00Z,26.6493,-81.8810,1.98,8.74,1111122 
SCCF RECON,ioos:station:SCCF:53:1,2010-01-08T10:00:00Z,26.6493,-81.8810,1.95,8.71,1111122 
SCCF RECON,ioos:station:SCCF:53:1,2010-01-08T11:00:00Z,26.6493,-81.8810,1.95,8.8,1111122 
SCCF RECON,ioos:station:SCCF:53:1,2010-01-08T12:00:00Z,26.6493,-81.8810,1.98,8.81,1111122 
SCCF RECON,ioos:station:SCCF:53:1,2010-01-08T13:00:00Z,26.6493,-81.8810,2.011,8.78,1111122 
SCCF RECON,ioos:station:SCCF:53:1,2010-01-08T14:00:00Z,26.6493,-81.8810,2.06,8.75,1111122 
SCCF RECON,ioos:station:SCCF:53:1,2010-01-08T15:00:00Z,26.6493,-81.8810,2.1,8.82,1111122 
SCCF RECON,ioos:station:SCCF:53:1,2010-01-08T16:00:00Z,26.6493,-81.8810,2.123,8.82,1111122 
SCCF RECON,ioos:station:SCCF:53:1,2010-01-08T17:00:00Z,26.6493,-81.8810,2.136,8.82,1111122 
SCCF RECON,ioos:station:SCCF:53:1,2010-01-08T18:00:00Z,26.6493,-81.8810,2.15,8.8,1111122 
SCCF RECON,ioos:station:SCCF:53:1,2010-01-08T19:00:00Z,26.6493,-81.8810,2.16,8.77,1111122 
SCCF RECON,ioos:station:SCCF:53:1,2010-01-08T20:00:00Z,26.6493,-81.8810,2.17,8.86,1111122 
SCCF RECON,ioos:station:SCCF:53:1,2010-01-08T21:00:00Z,26.6493,-81.8810,2.196,8.89,1111122 
SCCF RECON,ioos:station:SCCF:53:1,2010-01-08T22:00:00Z,26.6493,-81.8810,2.24,9.05,1111122 
SCCF RECON,ioos:station:SCCF:53:1,2010-01-08T23:00:00Z,26.6493,-81.8810,2.3,9.26,1111122 
SCCF RECON,ioos:station:SCCF:53:1,2010-01-09T00:00:00Z,26.6493,-81.8810,2.35,9.19,1111122 
SCCF RECON,ioos:station:SCCF:53:1,2010-01-09T01:00:00Z,26.6493,-81.8810,2.39,9.02,1111122 
SCCF RECON,ioos:station:SCCF:53:1,2010-01-09T02:00:00Z,26.6493,-81.8810,2.41,9.08,1111122 
SCCF RECON,ioos:station:SCCF:53:1,2010-01-09T03:00:00Z,26.6493,-81.8810,2.39,9.12,1111122 
SCCF RECON,ioos:station:SCCF:53:1,2010-01-09T04:00:00Z,26.6493,-81.8810,2.34,9.02,1111122 
SCCF RECON,ioos:station:SCCF:53:1,2010-01-09T05:00:00Z,26.6493,-81.8810,2.29,8.88,1111122 
SCCF RECON,ioos:station:SCCF:53:1,2010-01-09T06:00:00Z,26.6493,-81.8810,2.23,8.87,1111122 
SCCF RECON,ioos:station:SCCF:53:1,2010-01-09T07:00:00Z,26.6493,-81.8810,2.17,8.71,1111122 
SCCF RECON,ioos:station:SCCF:53:1,2010-01-09T08:00:00Z,26.6493,-81.8810,2.12,8.75,1111122 
SCCF RECON,ioos:station:SCCF:53:1,2010-01-09T09:00:00Z,26.6493,-81.8810,2.07,8.72,1111122 
SCCF RECON,ioos:station:SCCF:53:1,2010-01-09T10:00:00Z,26.6493,-81.8810,2.02,8.71,1111122 
SCCF RECON,ioos:station:SCCF:53:1,2010-01-09T11:00:00Z,26.6493,-81.8810,1.97,8.73,1111122 
SCCF RECON,ioos:station:SCCF:53:1,2010-01-09T12:00:00Z,26.6493,-81.8810,1.939,8.72,1111122 
SCCF RECON,ioos:station:SCCF:53:1,2010-01-09T13:00:00Z,26.6493,-81.8810,1.901,8.74,1111122 
SCCF RECON,ioos:station:SCCF:53:1,2010-01-09T14:00:00Z,26.6493,-81.8810,1.87,8.77,1111122 
SCCF RECON,ioos:station:SCCF:53:1,2010-01-09T15:00:00Z,26.6493,-81.8810,1.86,8.84,1111122 
SCCF RECON,ioos:station:SCCF:53:1,2010-01-09T16:00:00Z,26.6493,-81.8810,1.85,8.9,1111122 
SCCF RECON,ioos:station:SCCF:53:1,2010-01-09T17:00:00Z,26.6493,-81.8810,1.838,8.88,1111122 
SCCF RECON,ioos:station:SCCF:53:1,2010-01-09T18:00:00Z,26.6493,-81.8810,1.84,8.92,1111122 
SCCF RECON,ioos:station:SCCF:53:1,2010-01-09T19:00:00Z,26.6493,-81.8810,1.85,9.06,1111122 
SCCF RECON,ioos:station:SCCF:53:1,2010-01-09T20:00:00Z,26.6493,-81.8810,1.84,9.12,1111122 
SCCF RECON,ioos:station:SCCF:53:1,2010-01-09T21:00:00Z,26.6493,-81.8810,1.851,9.18,1111122 
SCCF RECON,ioos:station:SCCF:53:1,2010-01-09T22:00:00Z,26.6493,-81.8810,1.86,9.07,1111122 
SCCF RECON,ioos:station:SCCF:53:1,2010-01-09T23:00:00Z,26.6493,-81.8810,1.89,8.98,1111122 
SCCF RECON,ioos:station:SCCF:53:1,2010-01-10T00:00:00Z,26.6493,-81.8810,1.94,8.49,1111122 
SCCF RECON,ioos:station:SCCF:53:1,2010-01-10T01:00:00Z,26.6493,-81.8810,1.99,8.63,1111122 
SCCF RECON,ioos:station:SCCF:53:1,2010-01-10T02:00:00Z,26.6493,-81.8810,2.03,8.54,1111122 
SCCF RECON,ioos:station:SCCF:53:1,2010-01-10T03:00:00Z,26.6493,-81.8810,2.07,8.66,1111122 
SCCF RECON,ioos:station:SCCF:53:1,2010-01-10T04:00:00Z,26.6493,-81.8810,2.089,8.65,1111122 
SCCF RECON,ioos:station:SCCF:53:1,2010-01-10T05:00:00Z,26.6493,-81.8810,2.06,8.9,1111122 
SCCF RECON,ioos:station:SCCF:53:1,2010-01-10T06:00:00Z,26.6493,-81.8810,1.0,-9999.0,1111122 
SCCF RECON,ioos:station:SCCF:53:1,2010-01-10T07:00:00Z,26.6493,-81.8810,1.0,-9999.0,1111122 
SCCF RECON,ioos:station:SCCF:53:1,2010-01-10T08:00:00Z,26.6493,-81.8810,1.0,-9999.0,1111122 
SCCF RECON,ioos:station:SCCF:53:1,2010-01-10T09:00:00Z,26.6493,-81.8810,1.0,-9999.0,1111122 
SCCF RECON,ioos:station:SCCF:53:1,2010-01-10T10:00:00Z,26.6493,-81.8810,1.0,-9999.0,1111122 
SCCF RECON,ioos:station:SCCF:53:1,2010-01-10T11:00:00Z,26.6493,-81.8810,1.0,-9999.0,1111122 
SCCF RECON,ioos:station:SCCF:53:1,2010-01-10T12:00:00Z,26.6493,-81.8810,1.0,-9999.0,1111122 
SCCF RECON,ioos:station:SCCF:53:1,2010-01-10T13:00:00Z,26.6493,-81.8810,1.0,-9999.0,1111122 
SCCF RECON,ioos:station:SCCF:53:1,2010-01-10T14:00:00Z,26.6493,-81.8810,1.0,-9999.0,1111122 
SCCF RECON,ioos:station:SCCF:53:1,2010-01-10T15:00:00Z,26.6493,-81.8810,1.0,-9999.0,1111122 
SCCF RECON,ioos:station:SCCF:53:1,2010-01-10T16:00:00Z,26.6493,-81.8810,1.0,-9999.0,1111122 
SCCF RECON,ioos:station:SCCF:53:1,2010-01-10T17:00:00Z,26.6493,-81.8810,1.0,-9999.0,1111122 
SCCF RECON,ioos:station:SCCF:53:1,2010-01-10T18:00:00Z,26.6493,-81.8810,1.0,-9999.0,1111122 
SCCF RECON,ioos:station:SCCF:53:1,2010-01-10T19:00:00Z,26.6493,-81.8810,1.0,-9999.0,1111122 
SCCF RECON,ioos:station:SCCF:53:1,2010-01-10T20:00:00Z,26.6493,-81.8810,1.0,-9999.0,1111122 
SCCF RECON,ioos:station:SCCF:53:1,2010-01-10T21:00:00Z,26.6493,-81.8810,1.0,-9999.0,1111122 
SCCF RECON,ioos:station:SCCF:53:1,2010-01-10T22:00:00Z,26.6493,-81.8810,1.739,9.6,1111122 
SCCF RECON,ioos:station:SCCF:53:1,2010-01-10T23:00:00Z,26.6493,-81.8810,1.0,-9999.0,1111122 
SCCF RECON,ioos:station:SCCF:53:1,2010-01-11T00:00:00Z,26.6493,-81.8810,1.0,-9999.0,1111122 
SCCF RECON,ioos:station:SCCF:53:1,2010-01-11T01:00:00Z,26.6493,-81.8810,1.0,-9999.0,1111122 
SCCF RECON,ioos:station:SCCF:53:1,2010-01-11T02:00:00Z,26.6493,-81.8810,1.0,-9999.0,1111122 
SCCF RECON,ioos:station:SCCF:53:1,2010-01-11T03:00:00Z,26.6493,-81.8810,1.0,-9999.0,1111122 
SCCF RECON,ioos:station:SCCF:53:1,2010-01-11T04:00:00Z,26.6493,-81.8810,1.0,-9999.0,1111122 
SCCF RECON,ioos:station:SCCF:53:1,2010-01-11T05:00:00Z,26.6493,-81.8810,1.0,-9999.0,1111122 
SCCF RECON,ioos:station:SCCF:53:1,2010-01-11T06:00:00Z,26.6493,-81.8810,1.0,-9999.0,1111122 
SCCF RECON,ioos:station:SCCF:53:1,2010-01-11T07:00:00Z,26.6493,-81.8810,1.0,-9999.0,1111122 
SCCF RECON,ioos:station:SCCF:53:1,2010-01-11T08:00:00Z,26.6493,-81.8810,1.0,-9999.0,1111122 
SCCF RECON,ioos:station:SCCF:53:1,2010-01-11T09:00:00Z,26.6493,-81.8810,1.0,-9999.0,1111122 
SCCF RECON,ioos:station:SCCF:53:1,2010-01-11T10:00:00Z,26.6493,-81.8810,1.0,-9999.0,1111122 
SCCF RECON,ioos:station:SCCF:53:1,2010-01-11T11:00:00Z,26.6493,-81.8810,1.0,-9999.0,1111122 
SCCF RECON,ioos:station:SCCF:53:1,2010-01-11T12:00:00Z,26.6493,-81.8810,1.0,-9999.0,1111122 
SCCF RECON,ioos:station:SCCF:53:1,2010-01-11T13:00:00Z,26.6493,-81.8810,1.0,-9999.0,1111122 
SCCF RECON,ioos:station:SCCF:53:1,2010-01-11T14:00:00Z,26.6493,-81.8810,1.0,-9999.0,1111122 
SCCF RECON,ioos:station:SCCF:53:1,2010-01-11T15:00:00Z,26.6493,-81.8810,1.0,-9999.0,1111122 
SCCF RECON,ioos:station:SCCF:53:1,2010-01-11T16:00:00Z,26.6493,-81.8810,1.0,-9999.0,1111122 
SCCF RECON,ioos:station:SCCF:53:1,2010-01-11T17:00:00Z,26.6493,-81.8810,1.0,-9999.0,1111122 
SCCF RECON,ioos:station:SCCF:53:1,2010-01-11T18:00:00Z,26.6493,-81.8810,1.0,-9999.0,1111122 
SCCF RECON,ioos:station:SCCF:53:1,2010-01-11T19:00:00Z,26.6493,-81.8810,1.0,-9999.0,1111122 
SCCF RECON,ioos:station:SCCF:53:1,2010-01-11T20:00:00Z,26.6493,-81.8810,1.0,-9999.0,1111122 